map of SNN home
SNN - Airport
Location
City:  Shannon, County Clare, Munster, Ireland
Near (Alt.):Limerick
Name:Shannon International Airport
ICAO:EINN
IATA:SNN

Details
Type:Airport (Aerodrome, Airfield)
Use:International (customs port of entry)
Latitude:5242'07"N (52.701978)
Longitude:855'29"W (-8.924816)
Elevation:46 ft (14 m)
Variation:3.81W (WMM2015 magnetic declination)
0.17 annual change
Runways:5
Longest:10495 × 148 ft (3199 × 45 m), paved

Time
Time Zone:UTC+0 (DST+1)
Local Time:

Weather
METAR:EINN 190330Z 15009KT 9999 FEW026 BKN080 09/07 Q1023 NOSIG
TAF:EINN 182300Z 1900/1924 17008KT 9999 SCT020 BKN045 PROB40
TEMPO 1907/1913 -DZ BKN012
BECMG 1910/1913 21010KT PROB30
TEMPO 1913/1919 BKN014
BECMG 1915/1918 17008KT
BECMG 1919/1922 BKN012

Related Locations
Nearby:
Farthest:SZS: 12008 mi / 19325 km
Ryan's Creek, Stewart Island, STL, NZ

Find:

   beyond  
but within

Other Information
Maps:
NOTAMs:
Links:
Sources:

  
  • flag of Ireland
  • flag of Munster
  

Sectional Chart

Flight Planning
at skyvector.com

Satellite Image

Google Maps Satellite view

 

Copyright © 2004-2018 Karl L. Swartz. All rights reserved.
The Great Circle Mapper name and logo are trademarks of the Great Circle Mapper.
All other trademarks mentioned herein belong to their respective owners.
Please see credits for attibutions and further copyright information.

  Follow gcmap on Facebook Follow gcmap on Twitter Follow gcmap on Google+ GCmap on LinkedIn

hCard Microformat

Geo Microformat